Regional Weather Roundup
Issued by NWS Sterling, VA

Home | Current Version | Previous Version | Text Only | Print | Product List | Glossary Off
Versions: 1 2 3 4 5 6 7 8 9 10 11 12 13 14 15 16 17 18 19 20 21 22 23 24 25 26 27 28 29 30 31 32 33 34 35 36 37 38 39 40 41 42 43 44 45 46 47 48 49 50

274
ASUS41 KLWX 202211
RWRLWX

REGIONAL WEATHER ROUNDUP
NATIONAL WEATHER SERVICE BALTIMORE MD/WASHINGTON DC
600 PM EDT WED SEP 20 2017

Note: "FAIR" indicates few or no clouds below 12,000 feet
with no significant weather and/or obstructions to visibility.
 TC=TEMPERATURE CELSIUS

 * =Non NWS site. Station does not report precipitation (e.g. rain,
    snow, etc.), thunder, or fog.

DCZ001-MDZ009-015-VAZ040>042-051-053>054-202300-
WASHINGTON METRO

CITY           SKY/WX    TMP DP  RH WIND       PRES   REMARKS
WASHINGTON NAT MOSUNNY   85  64  49 NW9       29.93R
DULLES         MOSUNNY   85  57  38 N9        29.94R
ANDREWS AFB    SUNNY     83  62  48 NW8       29.92R
FT BELVOIR     SUNNY     86  60  40 NW5       29.93R
QUANTICO       SUNNY     86  61  42 N7        29.93S
COLLEGE PARK*  SUNNY     84  59  42 NW5       29.93R
LEESBURG*      SUNNY     86  63  45 N6        29.96R
MANASSAS*      SUNNY     84  61  45 NW8       29.94R
GAITHERSBURG*  SUNNY     83  62  49 CALM      29.96R

$$

MDZ006>007-011-014-202300-
BALTIMORE METRO

CITY           SKY/WX    TMP DP  RH WIND       PRES   REMARKS
BWI AIRPORT    MOSUNNY   84  61  45 VRB7      29.92R
MD SCIENCE CTR   N/A     86  57  37 MISG      29.92R
MARTIN STATE   SUNNY     86  66  51 NW3       29.93R
ANNAPOLIS      SUNNY     86  66  51 NW6       29.91R
FORT MEADE*    SUNNY     81  63  54 CALM      29.95R

$$

MDZ012-015-019>023-202300-
MARYLAND EASTERN SHORE

CITY           SKY/WX    TMP DP  RH WIND       PRES   REMARKS
OCEAN CITY     MOSUNNY   81  70  69 NW9       29.90R
SALISBURY      SUNNY     82  68  62 N12       29.90R
CAMBRIDGE*     SUNNY     82  68  61 NW5       29.91R
EASTON*        SUNNY     84  66  54 N6        29.95R

$$

MDZ017>025-202300-
SOUTHERN MARYLAND

CITY           SKY/WX    TMP DP  RH WIND       PRES   REMARKS
PATUXENT RIVER MOSUNNY   84  63  49 NW8       29.91R
ST INIGOES     SUNNY     84  63  49 W5        29.91R
LEONARDTOWN*   SUNNY     82  63  51 CALM      29.94R

$$

MDZ003>005-202300-
NORTH CENTRAL MARYLAND

CITY           SKY/WX    TMP DP  RH WIND       PRES   REMARKS
FREDERICK*     SUNNY     88  54  31 N7        29.97R
HAGERSTOWN APT SUNNY     85  54  34 N8        29.96S
WESTMINSTER*   SUNNY     84  63  48 N3        29.97R

$$

MDZ501>502-202300-
WESTERN MARYLAND

CITY           SKY/WX    TMP DP  RH WIND       PRES   REMARKS
OAKLAND*       MOSUNNY   66  63  88 W3        30.08R
CUMBERLAND*    SUNNY     86  54  32 NW7       30.02R

$$

VAZ025>031-202300-
SHENANDOAH VALLEY

CITY           SKY/WX    TMP DP  RH WIND       PRES   REMARKS
WINCHESTER*    SUNNY     82  59  44 CALM      29.97R
FRONT ROYAL*   PTSUNNY   82  55  39 N3        29.96R
LURAY*         MOSUNNY   86  59  39 CALM      29.96S
NEW MARKET*    PTSUNNY   82  61  49 CALM      29.96R
STAUNTON*      MOSUNNY   76  65  69 SW5       30.01S
WAYNESBORO*    SUNNY     71  65  82 S5        30.01S

$$

WVZ021-048>050-054>055-202300-
EASTERN WEST VIRGINIA PANHANDLE

CITY           SKY/WX    TMP DP  RH WIND       PRES   REMARKS
MARTINSBURG    SUNNY     85  56  37 NW8       29.95R
PETERSBURG*    MOSUNNY   84  64  50 N3        29.99S

$$

VAZ036>039-050-202300-
CENTRAL FOOTHILLS

CITY           SKY/WX    TMP DP  RH WIND       PRES   REMARKS
CHARLOTTESVILL SUNNY     84  66  54 CALM      29.95S
CULPEPER*      SUNNY     85  63  47 N5        29.95R
ORANGE*        SUNNY     84  63  48 CALM      29.94S
GORDONSVILLE*  SUNNY     85  67  56 CALM      29.94S
WARRENTON*     SUNNY     86  58  37 N5        29.94S

$$

VAZ055>057-202300-
NORTH AND CENTRAL PIEDMONT

CITY           SKY/WX    TMP DP  RH WIND       PRES   REMARKS
FREDERICKSBRG* SUNNY     85  61  44 N6        29.92S
STAFFORD*      SUNNY     83  59  44 N6        29.97S

$$

NCZ024-NYZ072-PAZ021-071-VAZ022-071-202300-
OTHER REGIONAL OBSERVATIONS

CITY           SKY/WX    TMP DP  RH WIND       PRES   REMARKS
NEW YORK CITY  CLOUDY    78  64  61 VRB6      29.93R
PHILADELPHIA   MOSUNNY   85  61  44 N10G23    29.90R
PITTSBURGH     MOSUNNY   81  62  52 CALM      30.01S
ROANOKE        PTSUNNY   77  67  71 W7        30.02R
RICHMOND       MOSUNNY   85  62  46 N10       29.93R
RALEIGH        MOSUNNY   90  61  37 N6        29.94S HX  90

$$

ANZ530>537-202300-
MARINE OBSERVATIONS

STATION/POSITION TIME  TEMP    WIND        PRES
                       AIR SEA DIR/SP/G
                 (UTC) (F)     (DEG/KT/KT) (MB)
THOMAS PT LIGHT  2200   80 75   40/  3/  3   N/A
BALT KEY BRIDGE  2148   84     330/ 10/ 12 1012.9R
COVE POINT       2148   79     330/  2/  2 1013.6R
LEWISETTA        2148   83 76  320/  9/ 11 1013.0R
SOLOMONS ISLAND  2148   84 76  310/  5/  8 1012.5R
PINEY POINT      2148          320/ 11/ 12   N/A

$$





USA.gov is the U.S. government's official web portal to all federal, state and local government web resources and services.